2022/10/17 10:10:00, 0.0,19.4
2022/10/17 10:20:00, 0.0,19.5
2022/10/17 10:30:00, 0.0,19.8
2022/10/17 10:40:00, 0.0,20.2
2022/10/17 10:50:00, 0.0,21.4
2022/10/17 11:00:00, 0.0,21.2
2022/10/17 11:10:00, 0.0,21.6
2022/10/17 11:20:00, 0.0,22.3
2022/10/17 11:30:00, 0.0,21.2
2022/10/17 11:40:00, 0.0,21.1
2022/10/17 11:50:00, 0.0,21.2
2022/10/17 12:00:00, 0.0,21.6
2022/10/17 12:10:00, 0.0,22.2
2022/10/17 12:20:00, 0.0,22.3
2022/10/17 12:30:00, 0.0,22.0
2022/10/17 12:40:00, 0.0,22.6
2022/10/17 12:50:00, 0.0,21.9
2022/10/17 13:00:00, 0.0,21.4
2022/10/17 13:10:00, 0.0,21.2
2022/10/17 13:20:00, 0.0,21.1
2022/10/17 13:30:00, 0.0,21.1
2022/10/17 13:40:00, 0.0,21.8
2022/10/17 13:50:00, 0.0,22.6
2022/10/17 14:00:00, 0.0,22.9
2022/10/17 14:10:00, 0.0,22.0
2022/10/17 14:20:00, 0.0,21.2
2022/10/17 14:30:00, 0.0,20.9
2022/10/17 14:40:00, 0.0,20.8
2022/10/17 14:50:00, 0.0,20.4
2022/10/17 15:00:00, 0.0,20.4
2022/10/17 15:10:00, 0.0,20.0
2022/10/17 15:20:00, 0.0,19.6
2022/10/17 15:30:00, 0.0,19.5
2022/10/17 15:40:00, 0.0,19.9
2022/10/17 15:50:00, 0.0,19.3
2022/10/17 16:00:00, 0.0,19.2
2022/10/17 16:10:00, 0.0,19.1
2022/10/17 16:20:00, 0.0,18.5
2022/10/17 16:30:00, 0.0,18.4
2022/10/17 16:40:00, 0.0,18.4
2022/10/17 16:50:00, 0.0,18.0
2022/10/17 17:00:00, 0.0,18.2
2022/10/17 17:10:00, 0.0,17.8
2022/10/17 17:20:00, 0.0,17.6
2022/10/17 17:30:00, 0.0,17.4
2022/10/17 17:40:00, 0.0,17.4
2022/10/17 17:50:00, 0.0,17.3
2022/10/17 18:00:00, 0.0,17.0
2022/10/17 18:10:00, 0.0,17.1
2022/10/17 18:20:00, 0.1,17.2
2022/10/17 18:30:00, 0.1,16.9
2022/10/17 18:40:00, 0.1,16.8
2022/10/17 18:50:00, 0.1,16.9
2022/10/17 19:00:00, 0.0,16.8
2022/10/17 19:10:00, 0.0,16.7
2022/10/17 19:20:00, 0.0,16.7
2022/10/17 19:30:00, 0.0,16.4
2022/10/17 19:40:00, 0.0,16.7
2022/10/17 19:50:00, 0.0,16.8
2022/10/17 20:00:00, 0.0,17.2
2022/10/17 20:10:00, 0.1,16.5
2022/10/17 20:20:00, 0.0,16.4
2022/10/17 20:30:00, 0.0,16.1
2022/10/17 20:40:00, 0.1,16.1
2022/10/17 20:50:00, 0.1,15.9
2022/10/17 21:00:00, 0.1,16.0
2022/10/17 21:10:00, 0.2,16.4
2022/10/17 21:20:00, 0.1,15.8
2022/10/17 21:30:00, 0.1,16.2
2022/10/17 21:40:00, 0.1,16.0
2022/10/17 21:50:00, 0.1,16.1
2022/10/17 22:00:00, 0.1,16.1
2022/10/17 22:10:00, 0.1,15.8
2022/10/17 22:20:00, 0.1,16.3
2022/10/17 22:30:00, 0.1,16.2
2022/10/17 22:40:00, 0.1,16.2
2022/10/17 22:50:00, 0.0,16.3
2022/10/17 23:00:00, 0.1,16.3
2022/10/17 23:10:00, 0.0,16.3
2022/10/17 23:20:00, 0.0,16.0
2022/10/17 23:30:00, 0.0,15.7
2022/10/17 23:40:00, 0.0,15.6
2022/10/17 23:50:00, 0.1,15.6
